| time (UTC) | temp F | wind direction | speed MPH | gust MPH | rain 1hr in | rain 24hr in | rain mn in | humidity % | barometer mb |
| 20260904121604 | 63 | 0 | 0.0 | 0.0 | 0.00 | 0.11 | 0.11 | 92 | 1011.8 |
| 20260904120108 | 63 | 0 | 0.0 | 0.0 | 0.00 | 0.11 | 0.11 | 92 | 1011.7 |
| 20260904114604 | 64 | 0 | 0.0 | 0.0 | 0.00 | 0.11 | 0.11 | 92 | 1011.5 |
| 20260904113105 | 64 | 0 | 0.0 | 0.0 | 0.00 | 0.11 | 0.11 | 92 | 1011.4 |
| 20260904111618 | 64 | 0 | 0.0 | 0.0 | 0.00 | 0.11 | 0.11 | 92 | 1011.1 |
| 20260904104606 | 64 | 0 | 0.0 | 0.0 | 0.00 | 0.11 | 0.11 | 92 | 1011.0 |
| 20260904103111 | 64 | 0 | 0.0 | 0.0 | 0.00 | 0.11 | 0.11 | 92 | 1011.4 |
| 20260904101601 | 64 | 0 | 0.0 | 0.0 | 0.00 | 0.11 | 0.11 | 92 | 1011.5 |
| 20260904100100 | 64 | 0 | 0.0 | 0.0 | 0.00 | 0.11 | 0.11 | 92 | 1011.7 |
| 20260904094600 | 64 | 0 | 0.0 | 0.0 | 0.11 | 0.11 | 0.11 | 92 | 1011.8 |
| 20260904093105 | 64 | 0 | 0.0 | 0.0 | 0.11 | 0.11 | 0.11 | 92 | 1011.8 |
| 20260904091610 | 64 | 0 | 0.0 | 2.0 | 0.11 | 0.11 | 0.11 | 92 | 1011.8 |
| 20260904090100 | 64 | 0 | 0.0 | 11.0 | 0.11 | 0.11 | 0.11 | 91 | 1012.5 |
| 20260904084608 | 64 | 280 | 0.0 | 0.0 | 0.00 | 0.00 | 0.00 | 91 | 1012.6 |
| 20260904083111 | 64 | 0 | 0.0 | 0.0 | 0.00 | 0.00 | 0.00 | 91 | 1011.7 |
| 20260904081607 | 64 | 0 | 0.0 | 0.0 | 0.00 | 0.00 | 0.00 | 91 | 1011.7 |
| 20260904080104 | 64 | 0 | 0.0 | 3.0 | 0.00 | 0.00 | 0.00 | 91 | 1011.7 |
| 20260904074610 | 64 | 0 | 0.0 | 2.0 | 0.00 | 0.00 | 0.00 | 91 | 1011.7 |
| 20260904073102 | 64 | 0 | 0.0 | 0.0 | 0.00 | 0.00 | 0.00 | 91 | 1012.0 |
| 20260904071606 | 64 | 35 | 0.0 | 3.0 | 0.00 | 0.00 | 0.00 | 91 | 1011.8 |
| 20260904070129 | 64 | 0 | 1.0 | 3.0 | 0.00 | 0.00 | 0.00 | 90 | 1011.9 |
| 20260904064559 | 64 | 39 | 1.0 | 3.0 | 0.00 | 0.00 | 0.00 | 90 | 1012.3 |
| 20260904063104 | 64 | 0 | 0.0 | 0.0 | 0.00 | 0.00 | 0.00 | 89 | 1012.6 |
| 20260904061614 | 65 | 0 | 0.0 | 0.0 | 0.00 | 0.00 | 0.00 | 89 | 1012.7 |
| 20260904060103 | 65 | 0 | 0.0 | 1.0 | 0.00 | 0.00 | 0.00 | 89 | 1012.9 |
| 20260904054607 | 65 | 0 | 1.0 | 5.0 | 0.00 | 0.00 | 0.00 | 89 | 1013.1 |
| 20260904053104 | 64 | 71 | 0.0 | 1.0 | 0.00 | 0.00 | 0.00 | 89 | 1013.2 |
| 20260904051609 | 65 | 44 | 1.0 | 6.0 | 0.00 | 0.00 | 0.00 | 89 | 1013.5 |
| 20260904044613 | 66 | 35 | 1.0 | 2.0 | 0.00 | 0.00 | 0.00 | 88 | 1013.1 |
| 20260904043104 | 66 | 0 | 0.0 | 3.0 | 0.00 | 0.00 | 0.00 | 88 | 1013.4 |
| 20260904041612 | 66 | 155 | 0.0 | 3.0 | 0.00 | 0.00 | 0.00 | 89 | 1013.1 |
| 20260904040112 | 66 | 156 | 0.0 | 2.0 | 0.00 | 0.00 | 0.00 | 89 | 1012.3 |
| 20260904034611 | 66 | 0 | 0.0 | 1.0 | 0.00 | 0.00 | 0.00 | 88 | 1012.7 |
| 20260904033104 | 66 | 0 | 0.0 | 0.0 | 0.00 | 0.00 | 0.00 | 88 | 1012.4 |
| 20260904031606 | 66 | 0 | 0.0 | 1.0 | 0.00 | 0.00 | 0.00 | 88 | 1012.5 |
| 20260904030104 | 66 | 0 | 0.0 | 0.0 | 0.00 | 0.00 | 0.00 | 88 | 1012.4 |
| 20260904024605 | 65 | 0 | 0.0 | 0.0 | 0.00 | 0.00 | 0.00 | 88 | 1012.5 |
| 20260904023103 | 65 | 0 | 0.0 | 0.0 | 0.00 | 0.00 | 0.00 | 88 | 1012.2 |
| 20260904021611 | 65 | 0 | 0.0 | 0.0 | 0.00 | 0.00 | 0.00 | 88 | 1012.1 |
| 20260904014640 | 66 | 0 | 0.0 | 1.0 | 0.00 | 0.00 | 0.00 | 87 | 1012.4 |
| 20260904013056 | 67 | 0 | 0.0 | 2.0 | 0.00 | 0.00 | 0.00 | 86 | 1011.9 |
| 20260904011630 | 68 | 0 | 0.0 | 1.0 | 0.00 | 0.00 | 0.00 | 82 | 1012.3 |
| 20260904010108 | 69 | 0 | 1.0 | 3.0 | 0.00 | 0.00 | 0.00 | 81 | 1012.2 |
| 20260904004601 | 69 | 38 | 0.0 | 1.0 | 0.00 | 0.00 | 0.00 | 79 | 1012.5 |
| 20260904003105 | 70 | 55 | 1.0 | 6.0 | 0.00 | 0.00 | 0.00 | 78 | 1012.4 |
| 20260904001602 | 70 | 0 | 0.0 | 4.0 | 0.00 | 0.00 | 0.00 | 77 | 1012.2 |
| 20260904000103 | 71 | 46 | 1.0 | 7.0 | 0.00 | 0.00 | 0.00 | 76 | 1012.2 |
| 20260903234601 | 72 | 40 | 0.0 | 5.0 | 0.00 | 0.00 | 0.00 | 74 | 1012.2 |
| 20260903233115 | 73 | 60 | 1.0 | 5.0 | 0.00 | 0.00 | 0.00 | 73 | 1012.2 |
| 20260903231606 | 73 | 42 | 2.0 | 5.0 | 0.00 | 0.00 | 0.00 | 71 | 1011.9 |
| 20260903230104 | 75 | 36 | 3.0 | 10.0 | 0.00 | 0.00 | 0.00 | 69 | 1011.6 |
| 20260903224603 | 76 | 37 | 3.0 | 10.0 | 0.00 | 0.00 | 0.00 | 67 | 1011.9 |
| 20260903223114 | 77 | 311 | 3.0 | 8.0 | 0.00 | 0.00 | 0.00 | 66 | 1012.0 |
| 20260903221604 | 78 | 46 | 2.0 | 11.0 | 0.00 | 0.00 | 0.00 | 64 | 1011.9 |
| 20260903220127 | 79 | 28 | 4.0 | 12.0 | 0.00 | 0.00 | 0.00 | 63 | 1011.9 |
| 20260903214604 | 81 | 43 | 1.0 | 10.0 | 0.00 | 0.00 | 0.00 | 62 | 1011.9 |
| 20260903213059 | 80 | 350 | 2.0 | 9.0 | 0.00 | 0.00 | 0.00 | 63 | 1011.8 |
| 20260903211605 | 81 | 31 | 4.0 | 8.0 | 0.00 | 0.00 | 0.00 | 60 | 1011.6 |
| 20260903210111 | 82 | 271 | 4.0 | 9.0 | 0.00 | 0.00 | 0.00 | 60 | 1011.5 |
| 20260903204602 | 82 | 360 | 2.0 | 6.0 | 0.00 | 0.00 | 0.00 | 61 | 1011.7 |
| 20260903203109 | 82 | 32 | 2.0 | 7.0 | 0.00 | 0.00 | 0.00 | 62 | 1011.8 |
| 20260903201606 | 82 | 318 | 2.0 | 5.0 | 0.00 | 0.00 | 0.00 | 63 | 1012.0 |
| 20260903200113 | 81 | 40 | 2.0 | 4.0 | 0.00 | 0.00 | 0.00 | 64 | 1012.2 |
| 20260903194559 | 81 | 293 | 1.0 | 4.0 | 0.00 | 0.00 | 0.00 | 66 | 1012.1 |
| 20260903193105 | 80 | 43 | 1.0 | 6.0 | 0.00 | 0.00 | 0.00 | 65 | 1012.1 |
| 20260903191603 | 80 | 53 | 1.0 | 3.0 | 0.00 | 0.00 | 0.00 | 66 | 1012.2 |
| 20260903184606 | 82 | 34 | 1.0 | 6.0 | 0.00 | 0.00 | 0.00 | 64 | 1012.2 |
| 20260903183106 | 83 | 27 | 2.0 | 6.0 | 0.00 | 0.00 | 0.00 | 63 | 1012.2 |
| 20260903181604 | 83 | 40 | 2.0 | 10.0 | 0.00 | 0.00 | 0.00 | 62 | 1012.3 |
| 20260903174601 | 81 | 0 | 1.0 | 5.0 | 0.00 | 0.00 | 0.00 | 66 | 1012.9 |
| 20260903173106 | 78 | 27 | 2.0 | 5.0 | 0.00 | 0.00 | 0.00 | 68 | 1013.0 |
| 20260903171603 | 78 | 44 | 2.0 | 7.0 | 0.00 | 0.00 | 0.00 | 68 | 1013.1 |
| 20260903170120 | 77 | 290 | 1.0 | 8.0 | 0.00 | 0.00 | 0.00 | 71 | 1013.3 |
| 20260903164603 | 75 | 17 | 1.0 | 8.0 | 0.00 | 0.00 | 0.00 | 72 | 1013.4 |
| 20260903163106 | 74 | 28 | 2.0 | 6.0 | 0.00 | 0.00 | 0.00 | 74 | 1013.5 |
| 20260903161606 | 73 | 0 | 2.0 | 6.0 | 0.00 | 0.00 | 0.00 | 74 | 1013.5 |
| 20260903154605 | 72 | 32 | 1.0 | 6.0 | 0.00 | 0.00 | 0.00 | 75 | 1013.7 |
| 20260903153105 | 71 | 0 | 1.0 | 5.0 | 0.00 | 0.00 | 0.00 | 76 | 1013.8 |
| 20260903151603 | 70 | 0 | 2.0 | 5.0 | 0.00 | 0.00 | 0.00 | 77 | 1013.8 |
| 20260903150113 | 68 | 30 | 1.0 | 5.0 | 0.00 | 0.00 | 0.00 | 80 | 1013.9 |
| 20260903144606 | 65 | 352 | 0.0 | 1.0 | 0.00 | 0.00 | 0.00 | 83 | 1014.1 |
| 20260903143105 | 64 | 0 | 0.0 | 1.0 | 0.00 | 0.00 | 0.00 | 84 | 1014.1 |
| 20260903141614 | 63 | 0 | 0.0 | 1.0 | 0.00 | 0.00 | 0.00 | 85 | 1014.4 |
| 20260903140104 | 62 | 0 | 0.0 | 1.0 | 0.00 | 0.00 | 0.00 | 85 | 1014.2 |
| 20260903134626 | 62 | 0 | 0.0 | 1.0 | 0.00 | 0.00 | 0.00 | 86 | 1014.2 |
| 20260903133113 | 62 | 42 | 0.0 | 1.0 | 0.00 | 0.00 | 0.00 | 87 | 1014.2 |
| 20260903131605 | 60 | 0 | 0.0 | 3.0 | 0.00 | 0.00 | 0.00 | 89 | 1014.3 |
| 20260903130105 | 58 | 0 | 0.0 | 0.0 | 0.00 | 0.00 | 0.00 | 91 | 1014.4 |
| 20260903124608 | 57 | 0 | 0.0 | 0.0 | 0.00 | 0.00 | 0.00 | 91 | 1014.1 |
| 20260903123103 | 56 | 0 | 0.0 | 0.0 | 0.00 | 0.00 | 0.00 | 92 | 1014.0 |